Regional Weather Roundup
Issued by NWS Kansas City/Pleasant Hill, MO

Home | Current Version | Previous Version | Graphics & Text | Print | Product List | Glossary Off
Versions: 1 2 3 4 5 6 7 8 9 10 11 12 13 14 15 16 17 18 19 20 21 22 23 24 25 26 27 28 29 30 31 32 33 34 35 36 37 38 39 40 41 42 43 44 45 46 47 48 49 50

000
ASUS43 KEAX 251004
RWREAX

WEATHER ROUNDUP FOR EASTERN KANSAS AND NORTHWEST MISSOURI
NATIONAL WEATHER SERVICE KANSAS CITY/PLEASANT HILL MO
400 AM CST SUN JAN 25 2015

KSZ040-057-103>105-MOZ028-029-037-043-251100-
...KANSAS CITY METROPOLITAN AREA...

CITY           SKY/WX    TMP DP  RH WIND       PRES   REMARKS
K.C. INTL      CLOUDY    45  39  79 NW14G20   29.63F
K.C. DOWNTOWN  PTCLDY    48  39  71 W10G20    29.63F
LEES SUMMIT    CLOUDY    46  39  76 W12G20    29.63F
OLATHE - IXD   PTCLDY    44  38  79 W14       29.66F
OLATHE - OJC   PTCLDY    45  38  76 NW10G17   29.64F
LAWRENCE       CLOUDY    44  38  79 NW9       29.68S

$$

MOZ001>008-011>017-020>025-030>033-038>040-044>046-053-054-251100-
...NORTHERN AND CENTRAL MISSOURI...

CITY           SKY/WX    TMP DP  RH WIND       PRES   REMARKS
ST. JOSEPH     MOCLDY    44  39  82 NW17      29.63F
WARRENSBURG    CLOUDY    45  41  87 W7        29.63S
WHITEMAN AFB   MOCLDY    46  43  91 W12       29.62F
CLINTON        CLOUDY    46  45  93 W8        29.65F
SEDALIA        CLOUDY    47  43  86 W14G21    29.62F
WARSAW         NOT AVBL
MARSHALL       CLOUDY    46  46 100 W10G16    29.61F
CHILLICOTHE      N/A     45  41  86 W8        29.58F
MOBERLY        CLOUDY    43  39  87 SW5       29.59F
KIRKSVILLE     LGT RAIN  40  39  97 S6        29.56S

$$

MOZ041-047>049-056>058-063>065-088>090-097-251100-
...EASTERN AND SOUTHERN MISSOURI...

CITY           SKY/WX    TMP DP  RH WIND       PRES   REMARKS
ST. LOUIS INTL LGT RAIN  48  39  71 SW9       29.63F
SPIRIT OF STL  LGT RAIN  45  40  82 SW3       29.61F
COLUMBIA       LGT RAIN  44  44 100 SW9       29.59F
JEFFERSON CITY CLOUDY    47  42  83 SW3       29.61F
HANNIBAL       FLURRIES  43  34  70 W9        29.58F
ROLLA          CLOUDY    44  38  79 SW9       29.61F
LEBANON        CLOUDY    48  34  57 W9        29.65
OSAGE BEACH    CLOUDY    45  39  81 W8        29.64F
SPRINGFIELD    CLOUDY    49  32  52 SW12      29.67F
NEVADA         CLOUDY    48  37  66 W10       29.69F
JOPLIN         CLOUDY    49  33  54 W13       29.72S
WEST PLAINS    CLOUDY    45  31  58 SW6       29.69F

$$

IAZ060-094-KSZ022-034>040-054-083-096-NEZ052-066-093-251100-
...KANSAS...SOUTHEAST NEBRASKA AND IOWA...

CITY           SKY/WX    TMP DP  RH WIND       PRES   REMARKS
TOPEKA         CLOUDY    48  37  65 NW29G38   29.69S
MANHATTAN      CLOUDY    47  34  60 NW17G28   29.76R
EMPORIA        PTCLDY    45  34  65 W17G28    29.74S
CHANUTE        CLOUDY    49  38  65 NW14      29.75R
WICHITA        CLEAR     49  31  49 NW23G30   29.84F
OMAHA          LGT RAIN  37  34  89 NW29G41   29.67R WCI  25
LINCOLN        CLOUDY    38  32  79 NW24G31   29.75R WCI  27
FALLS CITY     CLOUDY    43  36  76 NW18G29   29.65S WCI  35
LAMONI         CLOUDY    43  39  86 NW16      29.55S
DES MOINES     CLOUDY    41  37  86 NE14      29.56S WCI  33

$$



USA.gov is the U.S. government's official web portal to all federal, state and local government web resources and services.